GFSSW_500_rhum_123.txt.gz
RH
29 28 27 28 26 19 17 15 16 15 14 12 13 10 12 8 6 30 50 93 89 71 64 43 29 18 14 19 19 4 4 6 9 13 8 6 3 2 6 3 2 2 2 2 3
32 34 30 30 30 30 22 20 17 17 17 20 18 14 12 13 8 7 41 74 90 88 77 62 44 28 18 14 22 16 4 4 9 9 13 10 10 3 8 5 4 5 3 3 2
30 34 32 30 33 34 31 24 19 20 19 30 25 23 14 13 12 12 15 39 89 89 90 76 60 49 31 19 14 24 12 4 5 6 11 15 14 11 12 11 5 9 4 5 4
31 31 34 30 36 32 31 21 23 24 26 34 38 30 19 14 11 22 11 18 43 94 79 88 78 66 47 32 18 17 23 13 4 4 5 9 13 12 15 15 15 14 13 14 16
35 37 37 34 37 33 33 22 30 32 33 40 48 41 32 16 10 16 19 18 29 54 86 68 81 81 64 59 30 16 24 25 12 5 4 4 7 11 9 14 20 19 19 21 25
32 39 39 35 36 34 35 30 35 33 37 47 52 50 35 22 12 17 17 21 19 52 78 84 64 86 80 64 38 39 29 20 27 16 7 4 4 6 9 11 10 14 19 21 20
35 40 41 37 34 30 33 32 39 34 32 40 52 58 42 18 18 16 14 18 24 46 65 94 78 72 84 81 63 50 34 19 17 30 20 11 4 5 5 9 12 11 12 16 14
40 43 46 39 33 26 29 36 39 35 30 39 52 60 44 31 31 21 15 16 25 28 68 96 94 73 72 78 76 66 43 27 16 15 29 26 13 6 4 4 7 11 9 8 8
49 46 48 45 38 31 26 37 38 37 28 39 52 58 46 37 32 31 19 15 21 34 66 95 81 89 64 65 72 70 41 36 45 26 20 24 27 13 10 7 5 5 5 5 5
60 54 52 46 46 36 28 37 39 28 23 22 46 57 46 40 44 42 25 18 17 36 56 91 77 63 68 60 52 59 53 52 66 67 44 22 18 28 24 16 14 14 13 13 11
64 66 60 58 55 38 25 43 44 30 23 11 23 44 50 51 50 44 31 20 21 30 28 60 79 31 23 47 65 58 66 87 84 78 58 32 20 19 25 30 26 18 17 20 22
68 58 61 62 55 40 29 35 49 35 22 17 9 36 56 58 54 48 37 24 19 15 13 48 36 18 54 57 73 69 60 60 90 89 67 52 30 30 22 18 25 30 31 30 27
69 57 54 65 62 42 36 48 49 30 24 16 18 15 30 67 52 51 43 29 21 18 16 15 10 29 48 61 69 76 66 52 62 90 89 78 56 42 33 26 21 17 19 21 26
79 64 59 63 69 61 48 45 50 32 24 17 17 16 21 34 64 64 50 35 28 21 18 15 17 24 43 51 66 62 77 51 53 66 75 78 60 59 45 35 28 34 29 31 22
77 65 66 60 64 68 54 57 52 28 22 19 12 13 17 23 44 62 60 41 35 27 25 18 12 14 28 17 52 35 61 57 59 74 89 73 58 48 52 38 40 60 55 45 46
75 74 74 64 73 57 55 64 51 28 23 18 16 37 15 20 30 51 68 66 45 35 44 28 23 24 14 30 50 83 96 74 70 75 78 60 61 38 47 49 57 60 58 56 52
72 86 72 63 59 66 58 72 46 32 24 16 15 17 24 21 23 36 87 75 60 52 79 39 37 29 25 41 92 100 100 93 94 86 46 47 55 38 37 46 53 54 52 52 57
72 84 76 56 80 65 61 64 45 26 15 14 10 17 23 94 24 24 44 98 71 58 41 36 36 25 22 24 47 46 69 84 76 52 36 37 37 33 38 44 52 51 53 52 54
74 88 84 75 80 64 63 60 32 25 16 7 7 16 41 100 99 37 23 57 97 96 71 42 39 30 23 24 41 62 99 72 94 84 50 31 25 28 29 31 32 36 41 51 51
79 87 98 82 82 68 59 52 29 27 22 6 5 11 50 100 100 100 46 24 46 98 100 89 86 80 43 59 100 100 71 100 99 84 55 23 20 19 25 24 21 24 35 30 26
77 95 100 92 82 61 76 56 25 29 30 6 5 9 24 97 100 100 91 45 26 63 80 95 92 96 100 99 99 94 100 97 98 86 50 26 19 13 24 23 20 20 28 20 15
82 100 100 90 73 87 77 46 27 48 62 87 74 11 24 74 48 100 100 100 66 31 53 100 87 80 94 96 92 97 92 75 87 59 45 44 25 25 25 23 18 17 20 19 14
96 100 100 92 67 100 90 51 27 67 85 86 72 45 25 89 41 46 100 100 100 100 42 81 95 87 52 77 91 93 100 99 93 89 78 56 22 28 25 22 19 18 19 16 15
100 100 100 87 70 93 98 51 30 57 100 91 84 61 33 71 93 63 65 100 100 100 100 83 99 70 59 60 48 46 75 89 84 66 45 54 24 21 32 30 26 20 20 20 19
100 96 91 58 94 100 97 74 36 48 94 100 99 86 68 41 100 74 100 99 100 100 100 100 76 74 47 60 57 66 64 57 93 71 71 34 26 28 27 29 28 28 24 24 21
82 100 95 49 66 99 100 83 51 57 91 100 100 97 89 58 61 100 100 100 100 100 100 100 100 63 48 90 63 93 99 89 98 72 80 60 42 40 46 36 30 27 25 22 21
100 100 98 72 46 76 100 93 73 41 75 100 100 98 87 83 42 69 100 100 100 100 100 100 100 96 52 74 100 100 88 76 80 53 62 53 31 42 40 43 41 39 31 24 24

GFSSW_500_rhum_129.txt.gz
RH
22 21 20 20 20 20 21 24 24 24 24 30 31 28 28 23 25 14 12 13 10 8 7 13 27 53 66 54 30 17 17 18 10 5 6 3 3 2 2 2 2 2 3 4 6
29 29 27 25 24 25 24 24 25 26 28 27 30 33 32 28 24 23 20 15 12 11 6 8 15 27 56 69 47 22 17 19 18 5 6 5 4 3 3 2 3 3 2 3 6
37 37 36 36 34 31 30 29 29 30 28 28 32 31 33 29 22 18 16 12 12 12 11 8 11 20 34 64 62 41 21 19 20 12 4 6 6 4 3 2 2 2 2 3 7
42 44 43 44 43 42 36 34 34 34 31 29 30 33 28 24 20 18 17 15 13 15 17 12 10 12 20 47 80 65 41 27 22 19 6 5 7 6 3 3 2 2 2 2 3
46 49 48 47 48 45 45 44 40 38 34 32 31 30 28 25 22 17 11 12 12 15 24 17 11 12 12 31 69 73 64 45 31 19 18 4 7 8 5 3 4 2 2 2 2
48 49 53 55 52 50 50 51 47 46 42 37 34 30 23 18 23 15 12 13 19 25 33 24 15 16 17 24 54 74 87 66 44 20 20 10 5 9 7 4 4 3 2 3 3
52 54 55 56 57 54 56 58 56 50 46 44 41 31 24 28 25 10 21 27 36 49 41 30 24 27 25 25 43 68 92 80 49 20 19 20 6 8 6 8 6 6 3 3 5
60 59 58 59 59 58 60 60 60 56 54 51 42 36 26 29 22 9 28 38 50 55 58 34 35 35 31 30 48 64 89 82 65 32 19 20 13 5 6 8 8 9 7 6 7
62 67 68 66 63 60 64 63 64 59 63 59 46 39 28 34 26 12 33 38 50 58 63 43 42 38 63 46 60 57 60 73 84 58 26 19 18 11 5 7 7 9 9 8 12
56 64 70 66 62 59 63 64 66 62 66 64 54 42 36 42 28 12 18 39 38 66 73 67 44 54 50 93 23 21 39 63 86 82 48 22 18 23 7 5 6 5 7 9 10
61 66 70 75 68 66 69 68 62 69 70 69 62 44 46 41 24 13 19 33 36 44 73 70 55 51 45 25 26 36 46 57 88 98 93 55 32 30 23 8 5 6 7 8 7
76 80 83 88 79 84 80 75 59 61 50 93 71 58 51 47 26 20 30 34 26 32 66 79 73 42 50 47 46 56 58 52 72 96 94 88 60 44 30 22 9 5 5 7 6
92 92 92 96 91 96 90 81 70 67 55 64 61 59 56 36 20 27 32 33 27 24 62 87 73 60 41 45 38 46 48 51 65 93 95 99 70 57 32 26 26 14 6 5 5
97 97 99 96 92 100 95 90 82 71 64 66 67 61 54 30 27 37 36 30 25 21 45 91 73 79 41 49 52 41 37 71 73 97 94 96 80 71 53 32 24 27 24 13 9
98 98 97 100 98 99 100 92 90 84 96 86 82 66 47 35 31 38 28 28 24 24 38 75 71 69 72 53 55 32 72 76 96 100 98 95 85 67 58 39 30 25 24 27 27
99 99 98 98 99 99 100 95 95 100 100 97 79 64 38 38 41 36 33 27 21 20 92 67 75 67 62 50 54 46 76 100 100 100 100 90 83 59 65 34 45 46 37 29 30
100 100 99 98 100 100 100 100 100 100 98 92 75 52 46 48 47 36 48 32 24 22 56 77 79 76 65 64 72 85 100 92 100 100 79 61 85 40 60 60 57 61 59 58 51
100 100 100 100 100 100 100 100 100 100 98 86 70 46 58 60 41 32 46 95 30 34 40 100 100 74 72 75 73 67 100 98 93 85 54 50 70 41 44 57 62 66 72 70 62
97 94 94 100 100 100 100 100 100 100 88 80 57 46 60 57 39 27 25 100 38 39 100 100 100 98 76 68 76 68 77 83 100 94 57 78 40 36 42 44 56 64 73 77 77
76 84 100 100 100 100 100 100 100 95 81 56 50 53 69 53 27 30 47 100 77 54 64 100 97 96 90 76 59 78 37 58 100 98 90 77 38 29 28 35 43 55 65 72 72
79 100 100 100 100 100 100 100 96 87 67 56 51 82 77 49 22 25 35 100 97 98 100 100 100 100 100 98 69 60 83 80 97 100 81 54 22 20 26 31 30 36 47 59 76
100 100 100 100 100 100 100 100 88 70 64 68 49 92 72 57 41 26 27 100 100 92 100 100 100 100 100 95 81 68 53 67 70 93 70 54 16 17 20 24 25 30 39 42 69
100 100 100 100 100 100 98 89 86 71 51 80 62 78 76 67 56 51 31 70 100 100 100 100 99 98 98 100 100 97 67 60 61 68 61 59 19 24 15 16 18 24 35 40 40
100 100 100 100 100 99 90 73 100 84 59 84 77 86 83 78 89 84 66 71 100 100 100 100 99 100 100 100 100 100 98 98 67 58 50 83 42 20 20 20 17 28 38 36 39
100 100 81 100 100 98 100 100 100 79 76 73 93 81 98 93 100 100 66 57 95 100 100 100 100 99 100 100 100 100 96 92 88 69 56 32 25 22 20 23 29 44 55 58 58
100 100 100 100 100 100 100 100 100 86 62 97 99 86 77 96 95 66 82 80 66 85 100 100 94 92 99 100 100 100 100 81 70 72 57 41 28 23 37 36 32 50 64 61 55
88 98 100 100 100 100 100 100 100 82 61 100 83 100 86 100 86 68 59 60 74 87 99 98 100 98 95 99 98 100 100 100 100 84 53 43 25 27 24 18 24 48 62 59 52

GFSSW_500_rhum_132.txt.gz
RH
33 30 30 31 32 33 36 34 32 32 30 26 25 27 28 28 25 21 24 33 25 18 14 12 9 6 7 42 60 60 40 20 21 20 10 5 5 2 1 1 1 1 2 8 9
38 37 36 34 35 34 32 36 38 38 37 34 31 28 28 31 28 30 29 31 31 27 18 13 12 10 7 8 48 54 47 37 35 22 20 5 6 2 2 1 1 1 2 3 6
39 37 37 37 36 39 40 38 37 42 41 40 39 35 32 33 34 28 32 35 33 29 24 22 16 14 11 8 9 47 42 69 52 33 21 10 5 3 3 2 2 2 2 3 3
40 40 37 38 40 41 44 47 44 43 44 47 46 44 36 34 33 36 41 37 34 28 23 19 15 12 11 11 8 12 44 64 73 55 23 19 5 4 3 4 4 4 2 2 2
36 36 36 37 42 44 47 53 52 54 54 56 54 48 44 35 46 46 40 37 34 29 24 18 15 13 11 10 12 8 23 46 83 80 31 21 9 5 4 4 4 2 2 2 3
43 41 39 43 46 53 56 58 62 64 63 63 61 54 43 38 59 55 42 37 33 28 23 17 17 24 17 12 11 12 12 35 81 92 56 24 19 5 5 4 3 2 2 2 3
52 52 50 52 56 56 52 58 65 71 71 68 64 60 47 64 61 59 49 41 33 27 20 18 10 9 10 11 12 15 12 20 56 86 60 35 20 8 5 4 3 4 2 2 2
60 59 58 55 53 51 48 53 70 79 72 73 69 61 47 80 66 60 52 43 33 25 19 14 7 8 13 15 18 16 19 18 47 87 81 50 23 19 5 6 4 4 3 2 2
59 52 54 54 49 50 52 55 65 76 76 74 69 61 67 76 69 60 54 44 37 28 24 12 7 21 25 34 33 25 13 12 38 70 94 58 35 25 11 5 7 4 4 3 3
59 56 58 59 56 54 62 69 68 76 77 75 64 63 83 74 64 63 63 57 50 39 29 16 8 24 40 57 42 21 15 13 25 60 92 84 47 44 23 6 6 6 4 5 4
67 65 64 70 66 73 76 74 75 75 86 78 74 63 83 71 65 79 69 56 46 40 32 16 24 26 44 52 47 30 25 28 28 47 90 96 85 57 38 19 5 6 6 5 6
82 77 77 79 82 93 87 88 91 78 60 80 75 71 66 83 83 79 72 56 50 41 31 17 12 16 49 73 54 54 41 44 41 46 88 97 97 90 61 30 14 5 6 6 5
88 89 86 84 95 95 98 95 92 80 63 68 61 76 78 86 86 74 64 47 36 28 23 22 11 22 50 65 67 58 52 87 66 57 78 97 96 93 68 50 26 8 5 6 5
92 82 80 84 98 100 97 97 94 81 67 82 77 79 85 84 79 68 52 36 24 18 29 27 23 36 51 68 71 77 50 84 100 97 78 97 80 100 90 54 41 24 7 5 5
73 71 64 84 100 100 98 100 100 87 98 95 95 86 85 86 75 56 46 26 21 28 35 26 32 30 36 55 77 68 59 62 100 99 100 90 91 75 94 62 35 28 24 10 5
65 57 67 87 100 99 100 100 100 100 100 97 92 94 92 80 63 53 40 28 32 39 37 32 34 25 27 58 82 92 66 80 88 100 99 76 86 79 79 62 54 33 28 27 20
53 47 64 74 83 100 100 100 100 100 98 100 98 93 82 60 46 39 35 35 44 40 34 32 31 33 26 69 100 100 92 92 100 100 91 70 81 58 57 84 73 60 53 43 38
41 40 40 36 100 100 100 100 100 100 100 100 98 79 59 45 33 30 41 47 41 38 38 29 26 54 29 53 94 95 95 75 96 96 65 67 68 51 50 68 80 86 86 78 58
30 23 36 94 100 100 100 100 100 100 100 96 87 67 44 36 31 42 56 49 34 45 97 58 25 95 100 46 95 83 99 98 71 65 66 100 44 52 47 55 68 82 88 86 86
21 18 47 100 100 100 100 100 100 100 100 84 83 57 39 38 40 70 51 34 33 61 100 84 32 71 100 94 82 96 88 100 100 74 100 82 34 45 37 42 56 69 90 93 89
14 38 70 100 100 100 100 100 100 100 98 80 73 59 45 45 41 73 58 31 40 58 100 100 54 89 100 100 79 92 100 99 89 87 100 95 55 43 39 37 31 51 74 96 95
18 39 75 100 100 100 100 100 100 100 91 68 70 62 47 62 50 67 67 46 73 100 100 100 70 54 99 100 100 87 86 82 99 81 82 100 89 53 50 38 31 38 46 85 93
12 45 100 100 100 100 100 100 100 100 100 84 84 68 50 49 71 60 76 96 99 88 100 100 98 56 100 100 100 99 92 96 90 80 61 80 55 52 65 36 39 40 38 45 74
19 79 88 98 100 100 100 100 100 100 100 95 84 71 62 50 77 51 70 69 100 100 100 98 98 82 99 100 100 100 100 100 93 96 83 90 48 64 69 69 50 35 39 42 44
12 26 59 79 92 100 88 100 100 100 100 98 100 82 56 96 96 78 66 70 75 100 95 100 100 100 98 100 100 100 100 100 100 94 80 73 35 39 48 75 54 31 34 28 32
47 95 88 87 100 100 84 100 100 100 98 100 100 72 49 94 96 92 67 81 92 99 61 79 100 100 96 95 100 100 100 100 100 82 82 57 35 35 38 42 33 34 34 51 54
100 99 99 90 100 100 100 100 100 100 100 100 100 74 68 75 74 74 75 66 82 69 90 69 87 99 91 82 89 99 100 100 100 85 63 57 27 43 30 28 29 31 32 64 69

GFSSW_500_rhum_135.txt.gz
RH
35 34 34 34 32 31 30 31 34 33 31 31 30 29 31 34 36 36 32 30 25 24 23 22 19 15 10 7 6 8 43 43 40 44 30 30 17 5 5 4 2 1 1 1 2
32 31 31 31 31 30 30 31 32 33 37 40 37 37 36 37 41 42 34 38 33 28 24 28 27 22 16 10 8 6 15 43 54 65 42 38 22 11 5 4 2 1 1 1 2
42 42 42 41 39 37 36 35 38 39 40 40 43 42 43 43 46 41 50 48 40 31 30 29 33 30 23 17 12 9 7 10 35 55 64 44 27 22 5 4 2 1 1 1 1
42 43 45 46 48 46 41 40 44 46 46 46 43 44 48 51 57 60 59 56 48 38 33 35 36 34 30 26 18 14 10 9 13 40 64 70 36 24 9 4 2 2 1 1 2
48 46 44 42 42 47 48 47 53 54 55 54 54 53 55 62 74 64 58 56 54 46 41 40 40 37 30 28 24 20 14 11 10 12 44 87 50 27 21 5 3 2 1 1 2
50 53 50 46 46 50 55 54 55 56 56 54 63 68 74 72 68 75 63 60 60 53 45 42 38 37 32 26 23 19 16 12 11 9 16 66 74 36 25 6 4 4 2 2 2
56 58 56 48 50 52 52 48 45 46 48 51 66 70 76 80 68 72 78 65 64 59 50 46 42 37 30 27 23 20 17 15 12 10 10 29 69 38 32 17 5 4 4 4 4
56 54 51 45 38 50 46 44 41 46 53 59 77 78 74 78 74 74 72 80 74 67 59 50 43 36 30 25 21 19 17 15 13 13 10 18 44 78 43 32 6 4 4 3 3
55 52 43 36 37 50 51 45 38 46 61 72 83 90 85 78 74 72 74 84 83 76 66 54 43 36 27 19 32 26 14 12 11 11 11 12 31 83 74 48 13 5 5 4 3
55 51 49 49 44 51 50 47 43 41 63 81 86 96 93 82 70 76 89 92 88 81 72 58 49 40 30 28 30 16 12 10 8 7 9 10 14 61 90 70 31 6 6 4 3
61 56 56 54 52 54 55 52 48 48 63 93 98 76 100 88 73 83 81 97 98 93 87 71 62 45 34 29 24 18 14 12 8 6 10 10 16 32 97 83 53 12 6 6 4
58 59 56 56 53 53 53 59 74 67 62 100 100 100 100 97 82 81 84 87 98 96 98 86 69 55 43 32 53 21 17 15 11 19 27 16 14 22 88 92 72 31 7 8 7
55 60 64 62 50 45 67 77 92 93 98 100 100 100 100 91 75 74 80 82 85 87 73 80 66 46 41 38 32 30 24 12 22 74 30 26 24 25 54 97 94 48 15 8 10
60 58 57 50 41 55 43 74 100 100 99 94 90 87 92 86 73 75 78 76 72 69 59 62 52 35 30 29 30 35 24 30 49 96 54 65 24 22 42 86 96 57 29 6 8
59 60 55 42 31 28 40 82 100 100 100 94 99 93 89 79 68 64 69 65 60 60 52 41 36 28 23 18 22 33 62 61 66 84 77 69 100 20 43 71 92 78 39 17 6
51 53 47 33 26 22 40 100 100 100 99 100 100 98 91 78 75 64 65 53 36 32 41 34 22 21 14 14 21 24 68 83 98 100 100 77 81 50 58 55 78 94 61 31 9
50 47 40 27 17 26 66 100 100 100 100 99 98 99 93 79 66 60 51 33 24 24 20 23 20 21 23 27 36 29 55 99 95 100 87 56 63 59 36 48 76 88 78 49 31
53 47 32 21 18 34 99 100 100 100 100 100 100 99 96 85 58 39 32 28 23 26 24 30 25 37 41 35 42 31 43 80 100 92 92 74 76 40 44 49 62 89 98 95 73
51 42 29 16 28 78 100 100 100 100 100 100 100 100 96 74 48 40 30 20 33 59 60 67 45 48 98 36 44 38 50 95 99 100 100 100 56 37 64 54 54 78 92 95 92
49 32 20 22 32 86 100 100 100 100 100 100 100 100 90 74 53 43 31 28 37 58 64 61 55 84 99 49 71 74 43 90 100 99 96 86 87 41 52 56 46 62 82 91 98
42 27 17 22 69 100 100 100 100 100 100 100 100 97 92 88 67 47 33 36 40 78 100 100 62 56 84 79 53 74 54 88 100 100 99 82 72 52 56 48 51 46 72 80 96
32 16 16 51 95 100 100 100 100 100 100 99 100 100 100 84 68 50 35 41 47 63 85 100 100 88 78 80 67 84 84 86 100 98 97 100 99 99 83 40 40 39 61 90 96
21 12 16 55 97 100 100 85 95 100 100 100 94 99 99 96 77 59 49 58 56 77 84 100 100 100 81 81 49 100 100 95 95 100 100 96 98 100 98 47 44 39 38 94 85
16 13 28 57 68 72 87 69 100 100 99 100 95 94 94 85 90 68 58 53 81 80 100 100 100 100 100 100 94 100 100 100 72 97 93 96 99 91 99 89 48 51 67 77 91
10 23 30 85 96 100 96 98 85 98 100 100 90 80 85 92 92 62 43 76 72 90 100 100 100 100 100 96 100 98 99 100 100 94 100 81 77 100 95 99 96 70 76 79 78
8 33 80 100 100 98 97 72 100 100 100 100 94 95 100 93 89 59 62 65 67 98 100 88 100 100 100 100 100 94 97 100 100 96 94 97 87 100 100 100 100 77 64 83 82
12 48 100 91 98 100 100 58 97 100 97 100 100 94 100 100 98 48 39 40 53 86 100 91 91 77 86 100 99 92 94 98 100 100 70 78 72 81 100 96 98 84 78 69 66

GFSSW_500_rhum_138.txt.gz
RH
34 35 36 38 37 34 32 32 32 31 30 29 27 25 26 30 32 38 43 48 45 45 38 32 26 22 20 21 18 13 9 6 6 34 58 68 36 25 21 15 5 5 4 3 1
42 43 47 48 46 39 36 36 36 34 33 32 29 30 29 32 34 44 40 54 56 56 47 40 33 27 23 21 23 18 13 8 6 11 47 68 55 36 28 22 8 5 6 3 1
52 53 50 47 44 46 46 44 39 35 36 34 30 28 28 33 33 36 56 57 60 61 57 50 40 31 26 23 22 22 14 14 9 7 20 52 64 48 34 23 22 5 5 3 1
49 43 42 42 43 41 41 44 43 39 36 37 36 31 30 37 65 39 57 66 66 64 64 59 48 37 30 25 27 30 22 18 14 9 8 27 55 60 45 27 27 10 6 3 2
41 44 43 42 47 43 40 46 46 49 49 47 43 36 32 51 83 84 66 73 74 68 66 69 57 44 35 34 37 26 26 27 19 14 10 10 31 56 65 40 37 23 6 4 2
50 46 46 46 40 35 36 38 52 50 49 42 40 31 29 67 82 100 94 81 79 69 71 77 67 52 42 39 34 34 35 34 30 17 12 10 15 35 68 63 45 27 11 5 3
53 52 50 43 41 38 38 35 41 48 39 38 34 33 32 97 94 97 99 94 86 76 74 84 84 62 51 47 45 42 37 33 29 25 17 12 9 37 47 81 54 40 24 5 4
52 54 50 47 43 38 35 35 41 44 40 34 39 43 40 100 100 99 98 99 96 85 78 92 94 89 60 52 48 44 41 34 22 26 22 15 10 10 18 66 79 64 37 7 5
52 50 49 45 40 35 35 34 37 36 30 35 48 63 75 90 100 96 96 99 95 93 87 97 97 94 74 60 54 48 38 31 26 25 22 18 13 12 16 17 70 88 57 15 5
48 49 48 45 42 39 36 36 38 30 27 34 42 86 100 97 99 100 95 95 94 90 96 99 96 95 90 67 51 43 39 35 28 26 28 23 16 14 14 16 22 91 86 34 6
44 44 44 45 47 44 42 39 33 27 31 36 54 73 100 91 98 100 93 92 93 88 96 98 95 68 63 74 56 43 42 34 30 25 30 20 16 12 12 12 15 38 95 65 11
44 49 51 50 46 43 43 34 27 32 41 54 87 100 97 99 89 93 90 81 92 98 97 98 68 87 96 86 84 57 37 33 28 26 48 21 12 10 8 10 10 13 78 86 33
48 49 50 47 43 45 39 27 25 28 50 49 92 100 100 100 96 98 92 78 67 81 99 92 86 98 99 97 97 95 72 50 30 44 55 32 18 25 9 7 8 10 32 99 49
49 45 46 45 45 43 30 24 21 24 99 82 85 98 100 100 98 99 83 68 60 67 82 74 95 97 100 97 99 87 75 51 44 73 76 68 35 24 12 7 6 9 12 86 73
48 40 46 44 46 36 25 19 18 34 98 100 100 100 100 100 95 78 75 63 58 55 58 47 53 61 84 76 76 76 72 70 39 48 97 90 100 29 51 21 5 7 12 50 79
47 39 39 45 42 29 23 18 19 63 100 100 100 100 100 98 99 89 76 66 55 45 41 32 38 39 36 30 38 48 42 40 43 35 88 55 93 50 50 22 6 6 14 21 89
50 42 41 46 34 28 19 16 48 95 100 100 100 100 100 99 97 94 81 53 34 28 23 21 18 15 26 18 24 30 25 28 31 37 90 79 100 49 58 30 18 7 12 22 76
46 46 47 43 32 19 17 22 82 97 100 100 100 100 100 100 100 83 70 46 32 25 21 19 14 22 24 33 34 27 25 43 40 27 40 36 94 52 23 24 29 11 14 22 43
44 40 45 35 24 17 27 28 53 100 100 100 100 100 100 99 98 86 60 42 36 28 28 27 24 40 42 56 52 56 51 33 79 51 65 92 79 29 32 72 57 38 25 23 38
48 44 40 29 19 16 43 87 100 100 100 100 100 100 100 98 89 81 67 55 42 35 31 45 76 75 71 99 62 96 63 81 99 73 80 86 98 45 38 38 41 62 42 27 32
41 36 32 21 16 30 69 96 100 100 100 100 100 93 91 98 97 99 79 64 48 43 33 38 76 63 89 93 82 100 59 70 100 93 68 94 70 38 74 72 65 56 32 40 24
45 42 33 18 17 48 68 78 93 92 88 88 100 95 84 71 72 92 78 68 61 55 29 63 65 75 91 75 98 100 100 73 96 95 99 78 48 56 73 66 63 59 39 60 56
51 41 26 15 21 50 84 77 67 62 97 92 100 94 95 86 76 69 56 78 80 48 45 89 88 88 100 100 80 100 100 99 100 100 76 81 83 100 91 96 97 75 45 73 81
50 35 23 14 23 69 100 86 100 100 100 99 100 100 100 99 73 56 82 99 75 41 85 85 86 100 93 100 100 100 96 98 100 99 67 47 98 100 94 97 95 75 57 53 82
45 30 15 10 23 70 100 94 99 96 100 96 84 96 100 88 88 96 97 75 64 36 51 80 75 100 100 100 100 99 100 88 98 100 67 58 84 100 97 89 79 95 80 60 61
40 23 13 7 42 99 100 91 98 100 100 100 76 100 83 100 96 87 80 90 48 32 32 46 65 85 90 95 100 82 97 90 89 90 55 67 82 100 100 91 99 99 100 61 49
36 20 6 22 92 100 100 100 78 99 100 100 100 100 97 78 47 47 48 64 45 35 43 57 56 83 63 95 94 82 99 83 80 100 93 66 76 100 97 99 99 100 99 100 71

GFSSW_500_rhum_141.txt.gz
RH
39 41 38 32 33 34 33 35 31 26 24 23 21 20 20 20 23 24 26 23 24 33 36 56 52 48 43 34 27 25 20 12 9 10 7 22 62 67 33 20 22 12 5 5 5
42 41 38 40 43 42 42 41 30 26 28 26 23 21 21 22 21 29 30 26 24 29 52 71 65 59 50 41 33 27 22 15 14 14 10 8 32 65 55 26 22 21 11 5 5
40 42 44 42 43 43 44 44 40 34 34 34 29 25 26 26 25 27 28 28 32 43 68 79 76 68 57 49 38 32 25 21 18 19 15 10 9 52 60 48 27 24 23 11 5
47 46 44 43 42 41 41 41 41 38 37 35 30 29 32 33 43 27 26 42 61 77 84 84 82 74 67 60 48 40 32 27 25 22 18 12 8 9 30 54 66 36 26 19 6
50 47 43 37 37 36 39 38 40 41 42 42 38 34 34 44 43 55 38 42 85 97 94 92 89 84 77 70 60 50 40 33 30 28 21 17 12 8 11 40 78 66 36 23 13
44 44 38 35 34 34 34 35 36 37 41 41 36 34 30 43 41 67 98 94 88 91 94 95 97 95 84 81 73 59 48 38 34 32 30 20 16 12 8 19 75 83 54 29 20
47 44 38 38 36 36 33 31 31 30 31 37 35 30 22 60 72 99 98 100 94 97 94 96 98 92 83 86 85 70 58 51 38 34 31 30 20 13 11 10 42 86 83 46 28
46 40 41 39 39 38 35 34 33 31 31 32 30 25 22 53 92 100 99 97 96 95 93 97 94 94 87 94 94 84 71 54 40 38 33 39 22 17 15 12 17 45 83 70 39
41 42 44 41 40 42 37 36 32 28 30 25 24 23 23 46 88 100 97 99 98 98 92 94 92 83 92 94 100 97 76 63 48 47 46 60 27 27 20 15 13 27 56 74 70
41 42 46 44 42 43 37 34 29 30 24 23 17 23 40 69 100 100 100 97 100 96 94 93 88 70 96 100 88 100 100 90 60 63 57 46 30 31 27 20 13 14 30 60 77
43 47 44 46 41 41 35 33 32 26 22 19 17 22 39 59 100 100 100 96 95 96 95 91 76 69 100 100 100 99 100 95 82 68 87 79 37 34 31 26 18 13 14 34 59
46 47 46 45 41 37 34 32 29 25 18 16 15 15 25 79 85 96 100 98 99 100 97 93 73 100 99 96 99 98 96 73 75 87 83 65 48 37 32 25 23 16 16 18 28
48 48 46 43 39 35 31 27 26 20 15 12 15 24 39 67 94 93 100 96 94 94 89 85 86 95 96 98 100 100 99 74 89 95 78 73 48 46 32 28 24 22 14 20 26
50 46 45 40 36 35 30 27 23 16 14 17 32 66 91 100 100 100 94 99 95 86 74 70 90 97 95 85 100 88 100 100 100 99 92 80 49 45 35 29 28 21 16 14 28
48 42 44 40 38 37 29 26 20 17 17 61 84 100 100 100 100 99 98 90 92 75 70 63 74 75 69 90 100 69 100 100 99 100 100 89 85 39 37 31 23 19 15 12 16
50 43 41 39 38 34 30 26 19 20 27 51 99 100 100 100 100 91 86 90 89 80 70 60 57 53 51 52 57 61 84 97 100 100 100 75 68 40 40 28 21 14 12 9 10
53 46 44 39 39 34 31 22 16 28 63 66 99 100 100 100 97 97 100 100 94 81 64 49 39 29 24 23 22 36 32 47 69 97 76 74 97 41 37 33 22 14 11 9 7
49 47 46 44 37 34 29 18 17 45 80 82 100 100 94 97 89 90 94 94 100 77 58 46 36 28 22 17 14 18 26 26 29 44 56 66 71 49 41 44 31 26 27 13 8
46 45 44 40 34 34 24 13 21 36 68 99 100 100 100 99 85 80 86 97 98 83 56 42 41 32 22 30 32 17 24 23 28 26 34 54 54 45 53 38 34 30 40 19 13
45 46 43 37 37 32 20 15 26 55 52 74 100 100 100 98 78 66 49 94 100 95 86 59 44 39 24 83 78 83 87 88 81 62 34 27 36 36 43 41 43 37 27 23 14
47 46 48 45 40 25 15 13 40 72 69 64 100 100 87 96 76 82 63 89 81 72 60 63 54 38 30 95 89 97 94 99 100 100 57 34 24 28 33 41 36 56 42 30 16
49 52 51 47 37 24 13 13 35 75 70 92 81 100 90 85 74 84 73 64 69 57 59 72 70 52 36 91 86 99 100 100 100 88 100 99 25 21 49 84 54 23 38 38 71
51 53 51 48 32 21 13 13 39 77 85 83 100 100 98 79 74 82 88 72 59 59 95 83 57 38 44 95 100 100 100 100 100 90 93 99 31 37 100 100 93 43 57 42 50
61 58 50 44 29 20 10 12 44 96 93 78 98 100 99 91 84 90 89 78 67 94 84 63 35 27 42 73 100 100 100 100 99 100 94 71 92 69 100 98 84 63 81 73 42
67 62 52 43 24 16 8 32 98 100 100 95 69 100 100 86 100 97 89 93 100 86 67 48 27 29 30 61 83 98 100 100 99 89 53 67 63 53 85 100 79 82 71 62 58
73 67 56 40 33 13 9 28 71 100 100 100 95 84 98 97 82 75 56 52 46 53 38 37 41 29 30 66 67 66 100 100 95 69 71 59 64 41 74 100 98 100 100 82 67
74 66 58 38 29 13 11 11 28 95 100 100 100 100 94 100 96 73 60 48 60 57 56 54 52 28 30 62 60 52 98 78 84 70 60 69 66 90 98 100 99 100 98 82 87

GFSSW_500_rhum_144.txt.gz
RH
34 36 36 38 36 34 29 26 27 27 23 22 23 25 24 24 24 25 22 21 21 22 20 22 26 34 38 46 54 49 39 27 21 19 14 14 10 10 26 56 37 24 18 7 4
37 37 37 38 36 31 30 29 28 27 25 25 21 20 23 23 24 26 23 23 22 22 22 21 30 47 49 61 65 60 49 34 29 25 20 18 14 14 12 26 55 34 24 18 7
42 43 43 43 37 38 35 35 34 32 29 30 29 26 25 25 26 25 23 24 23 27 28 34 78 87 91 91 81 71 54 48 39 34 27 23 18 18 10 10 29 56 44 22 19
42 43 44 39 38 36 35 37 34 36 34 31 27 26 22 24 29 21 20 25 30 35 48 73 94 100 93 89 91 84 68 57 46 40 33 27 23 18 11 9 19 42 66 34 20
44 46 42 38 38 36 38 35 31 30 26 26 22 22 20 21 27 25 20 20 25 42 78 97 96 96 83 78 90 88 74 67 56 47 39 35 25 21 16 13 16 25 58 63 31
46 45 41 40 39 38 36 33 31 28 27 25 22 21 18 17 20 19 23 33 51 72 87 96 90 91 85 76 74 90 93 84 69 55 46 39 31 30 19 16 14 21 45 66 58
49 46 40 41 42 39 36 34 32 30 28 25 23 21 18 20 17 18 24 45 95 100 100 99 98 94 93 94 100 93 93 98 90 73 58 51 43 30 23 21 14 13 38 73 72
50 46 42 42 45 40 37 34 34 31 28 24 22 21 15 13 13 16 26 69 100 98 96 99 99 97 96 96 100 98 97 96 83 94 74 88 50 33 30 28 19 12 21 57 80
52 47 43 44 44 36 37 34 32 28 26 24 22 17 12 12 12 13 25 57 94 96 99 99 99 96 88 84 96 93 91 94 89 99 98 90 55 41 38 32 25 18 16 32 69
54 46 45 45 44 37 39 34 30 28 25 24 20 14 12 13 14 17 28 76 100 100 100 100 100 96 89 81 88 100 99 99 91 100 98 93 59 54 46 46 32 25 22 23 35
51 48 46 45 45 44 36 31 29 25 23 23 15 15 15 17 21 31 54 92 100 100 100 100 100 97 100 100 100 96 100 96 93 100 96 100 77 68 58 54 48 29 22 21 22
49 50 44 43 48 45 40 35 30 28 22 18 16 16 20 20 34 78 88 92 99 100 98 100 92 100 100 100 100 98 95 75 98 100 100 100 92 100 62 49 44 44 27 23 21
51 53 43 42 45 44 39 35 33 32 22 16 18 15 24 39 53 75 96 100 92 99 97 100 100 100 99 100 100 95 87 98 100 100 98 98 83 100 98 54 48 49 32 23 20
57 54 42 39 38 38 37 32 32 29 18 19 17 19 22 44 56 79 77 84 90 96 94 97 100 100 95 88 100 99 100 100 100 100 97 100 64 87 93 76 56 44 42 23 17
58 48 46 43 40 41 35 31 32 23 20 18 18 22 36 59 87 99 94 89 91 97 98 100 95 96 100 100 100 88 100 100 100 100 100 100 84 54 84 74 52 38 35 30 20
50 45 40 42 39 36 35 33 29 23 22 17 16 19 46 92 91 83 83 95 100 96 100 100 100 96 83 77 75 82 81 83 84 97 98 77 90 57 65 58 49 42 34 30 25
49 42 40 38 39 39 36 33 28 25 21 19 17 23 56 85 91 91 85 74 68 86 100 100 87 71 53 48 36 36 43 45 43 40 62 72 97 52 54 60 58 48 39 31 28
52 47 41 42 44 38 36 34 31 27 21 16 18 30 41 96 100 93 80 79 96 80 82 86 95 56 44 34 31 31 28 24 21 24 36 42 58 51 56 60 61 48 39 31 28
45 47 43 43 42 38 38 38 35 29 20 15 20 34 47 91 84 88 72 55 50 39 51 69 43 63 53 36 24 24 23 22 21 23 23 25 34 43 51 50 57 47 38 31 27
43 46 45 44 44 42 42 41 34 24 16 22 49 63 68 75 64 64 62 80 83 57 37 49 43 44 34 26 44 47 26 30 79 43 27 21 23 30 40 47 53 57 44 42 34
41 41 51 50 52 47 46 42 31 19 15 24 45 80 71 85 77 77 57 64 75 52 44 56 68 45 42 62 60 50 66 80 100 100 81 28 15 20 29 40 51 66 49 56 56
45 48 51 54 56 50 51 48 29 18 13 33 77 97 84 85 96 92 86 74 67 60 75 78 74 66 77 82 41 53 76 100 100 100 100 64 12 29 24 30 41 55 58 50 48
59 52 50 57 61 58 54 44 27 18 9 25 73 99 96 86 97 100 99 74 75 84 88 74 94 96 73 40 31 79 98 100 100 100 86 97 33 59 44 25 31 43 57 49 49
64 57 57 60 63 62 57 43 28 13 10 15 38 90 96 91 78 85 91 66 55 83 81 95 84 77 31 27 24 46 99 100 100 97 96 100 82 100 100 43 23 33 45 48 51
70 64 66 73 73 72 62 45 34 12 9 10 27 81 91 82 82 88 100 77 55 60 54 77 29 38 41 36 34 25 77 100 100 100 96 100 98 100 100 98 42 26 33 40 43
74 74 69 83 80 75 60 43 21 10 8 10 19 39 60 86 80 81 97 85 56 42 37 35 37 43 46 44 38 30 56 100 100 100 100 95 97 87 100 100 93 35 51 31 27
79 83 78 89 81 73 62 46 23 10 8 12 16 21 42 92 77 86 96 100 83 52 55 47 45 45 40 47 42 41 55 98 100 100 100 94 86 89 100 97 98 96 99 81 44

GFSSW_500_rhum_147.txt.gz
RH
29 28 30 33 34 33 30 28 29 29 26 22 18 17 17 17 18 22 18 16 16 16 15 15 19 21 21 24 32 36 30 17 16 17 27 29 24 18 12 9 15 52 49 30 24
30 31 34 40 40 37 35 32 31 29 28 22 22 21 18 20 20 20 19 18 18 16 17 14 16 19 21 25 42 49 41 22 36 43 44 37 32 26 17 12 9 12 50 51 25
26 29 41 42 39 37 38 35 32 29 26 25 24 22 23 23 24 22 19 16 16 13 14 14 16 17 18 39 74 84 53 73 74 65 63 47 38 35 24 14 12 13 21 58 52
27 36 43 43 39 39 38 34 33 30 28 25 24 19 20 20 24 18 14 13 12 11 11 16 22 27 31 50 89 93 79 74 72 76 71 58 49 42 32 18 17 17 16 35 61
29 34 44 43 41 40 36 33 30 27 26 25 24 20 20 18 22 16 12 10 10 9 11 16 23 44 46 78 100 95 80 87 81 79 72 67 49 54 41 24 21 18 15 19 54
30 37 48 45 44 41 36 35 30 27 26 26 26 23 20 19 15 13 12 11 10 9 10 16 37 56 75 89 99 86 81 89 98 90 82 69 59 69 45 33 24 20 18 15 36
33 47 49 48 42 40 37 33 29 29 24 27 26 23 19 18 15 13 12 11 11 13 19 49 96 100 95 96 100 100 97 99 100 98 97 100 85 51 48 45 31 24 19 16 19
28 43 50 46 43 40 36 31 28 27 25 27 25 23 20 15 14 14 12 10 12 16 25 85 100 96 92 90 95 100 100 100 97 100 99 100 70 62 64 53 40 32 25 19 14
28 33 40 45 43 38 35 30 25 27 26 28 25 24 17 15 15 14 10 8 12 20 37 87 100 99 100 99 100 100 93 96 99 100 97 98 61 74 87 68 50 40 32 24 20
26 32 40 45 44 36 34 28 26 24 25 25 22 19 16 16 16 13 9 13 29 70 100 100 100 91 83 73 82 100 84 82 93 100 100 100 67 94 100 98 69 50 42 31 21
29 38 44 45 45 36 28 26 26 22 22 24 22 19 17 17 15 11 11 30 65 82 100 99 96 100 100 100 100 99 100 83 89 98 100 100 78 100 97 97 90 54 46 36 26
39 42 45 47 40 33 31 31 27 26 25 24 21 19 18 16 13 12 16 30 66 85 100 93 98 100 100 100 100 100 100 100 100 100 97 95 83 91 99 91 89 73 47 38 30
59 55 52 43 40 39 34 34 30 30 27 23 20 20 19 16 13 12 19 40 66 95 88 100 98 92 100 100 100 100 100 100 99 100 97 100 71 99 85 91 89 87 56 43 31
59 54 47 44 43 41 38 34 33 31 27 24 22 21 19 15 15 11 32 63 75 70 82 100 100 97 93 100 94 100 99 100 100 100 100 100 78 93 99 100 94 92 57 53 39
57 53 46 41 39 40 38 36 35 32 30 25 25 23 19 15 13 15 37 73 72 65 70 100 100 100 100 95 90 99 100 98 100 99 97 100 79 58 97 95 97 72 74 53 48
54 48 42 38 34 37 37 38 37 35 32 31 30 26 19 15 13 20 72 83 78 62 55 60 100 100 99 100 96 83 82 66 50 56 73 72 96 65 82 87 100 100 81 59 50
54 44 36 37 42 43 42 40 40 38 34 34 31 24 19 15 19 26 62 85 73 38 54 94 100 100 100 98 93 68 42 40 54 48 49 44 54 59 60 87 88 99 100 70 53
51 36 35 43 50 50 45 43 43 39 38 39 32 23 17 15 22 34 45 56 63 45 48 32 28 63 100 100 85 73 67 52 41 43 35 33 36 48 63 70 81 80 84 96 74
38 25 40 55 58 51 48 48 47 44 42 42 32 25 16 18 31 37 53 57 57 49 42 46 32 31 53 95 94 78 55 35 25 37 37 35 24 28 39 54 79 82 88 98 93
27 24 52 61 62 54 54 54 55 50 50 45 31 21 15 27 41 46 52 70 81 68 51 47 44 30 40 86 93 76 46 36 32 23 22 31 29 22 24 33 48 93 90 98 98
17 21 48 65 63 61 58 59 62 54 56 46 30 17 14 22 53 58 67 90 90 96 80 57 48 44 61 83 71 60 68 68 62 54 44 53 27 23 21 22 28 61 86 97 100
14 27 54 69 67 62 62 67 63 62 62 43 25 16 15 15 40 67 68 85 100 97 69 53 59 61 66 71 75 82 81 54 41 38 71 92 50 99 68 27 20 27 60 80 98
14 29 53 71 66 67 64 74 66 70 64 42 22 16 10 12 35 36 55 79 85 85 63 58 68 73 75 84 73 37 29 39 48 93 80 98 88 100 96 52 26 22 31 68 91
18 41 59 73 73 69 69 81 77 78 62 40 24 15 8 9 30 27 41 62 80 85 67 46 43 71 85 39 30 37 41 49 59 80 94 100 91 100 99 99 72 28 26 46 72
38 54 83 82 84 79 74 84 81 79 62 36 26 12 7 8 20 30 46 81 73 87 84 58 37 36 32 29 35 45 58 46 50 62 96 78 97 69 94 100 100 87 29 31 57
85 95 87 94 88 83 85 88 90 79 55 36 26 11 8 10 17 18 30 85 88 81 89 67 45 37 32 35 40 52 47 44 47 77 98 93 94 80 100 99 93 100 54 31 40
94 92 84 92 85 78 92 96 93 79 52 29 25 12 8 10 12 18 24 46 94 86 99 92 59 61 48 38 46 50 45 52 88 100 100 100 100 78 90 88 78 91 100 60 31

GFSSW_500_rhum_153.txt.gz
RH
31 30 27 25 22 17 16 17 24 30 26 23 23 25 25 23 22 22 20 17 19 19 18 16 14 12 12 13 13 12 11 10 11 11 11 12 14 16 32 41 39 37 26 20 13
21 22 20 19 18 16 14 15 20 31 30 26 24 24 24 23 20 20 20 20 17 16 14 12 11 11 12 11 10 9 8 8 9 10 10 12 16 20 22 37 44 43 35 27 20
19 18 18 16 15 14 13 17 31 35 33 30 27 26 25 22 18 18 16 17 16 14 14 13 13 12 12 10 9 8 7 8 9 13 16 15 22 42 33 23 48 58 50 37 28
14 15 17 17 16 16 18 19 26 36 36 33 31 28 24 19 19 15 17 16 15 14 12 12 11 10 9 9 8 6 8 10 11 15 26 35 44 40 54 40 78 73 67 50 39
16 19 19 19 18 18 19 19 25 31 36 35 31 24 21 20 21 21 20 18 16 15 14 12 11 11 10 8 6 5 5 7 17 22 35 57 44 43 40 52 78 92 80 60 48
30 26 24 22 20 18 19 19 24 34 38 34 26 23 23 21 23 22 21 20 16 14 14 12 12 11 8 7 5 5 6 13 62 81 64 100 100 92 35 61 78 100 98 80 61
36 32 29 27 22 20 20 22 32 42 40 32 27 25 24 26 24 23 22 19 16 16 15 14 13 10 8 6 7 11 20 82 95 98 99 100 98 87 100 100 100 100 100 96 73
38 35 32 28 25 29 34 38 44 42 36 31 29 26 24 25 25 25 21 18 16 16 16 14 13 10 7 5 8 32 81 98 95 100 85 100 96 87 100 100 98 98 98 97 88
40 36 34 30 36 49 52 48 43 38 35 32 29 26 27 25 27 23 20 19 18 18 17 16 13 10 6 5 16 41 85 94 97 100 100 100 93 78 95 94 94 98 98 97 84
36 37 38 41 63 58 51 46 42 38 34 29 27 26 29 30 27 24 23 22 22 21 19 16 13 8 6 9 45 65 85 95 93 98 97 100 98 98 100 90 92 99 97 98 98
40 47 57 71 65 58 51 50 42 37 31 26 27 36 33 30 28 26 26 24 23 22 20 16 11 8 8 28 60 78 93 80 85 99 77 100 87 100 100 100 98 97 97 98 97
58 69 80 77 65 58 49 38 33 31 28 28 40 38 34 31 29 29 28 26 27 25 19 16 10 9 19 30 56 77 94 90 89 100 92 89 89 86 83 100 100 100 91 92 97
66 86 85 74 62 52 40 27 28 27 31 42 41 38 35 33 31 32 31 31 30 25 19 14 11 10 15 28 44 80 89 90 84 99 90 81 81 96 100 99 100 100 100 99 98
67 76 83 74 64 51 36 20 24 25 29 42 45 45 40 39 38 36 36 36 31 24 19 13 10 10 15 17 26 49 77 82 86 80 86 88 72 98 100 100 100 100 100 97 100
68 74 76 67 59 51 33 17 17 24 39 46 49 47 44 45 45 41 39 38 32 24 18 15 10 13 22 21 30 43 53 77 80 92 80 66 71 91 100 100 100 98 95 95 100
56 73 68 59 58 51 20 13 22 49 60 56 53 52 52 50 52 47 44 39 32 23 16 12 12 20 27 30 32 28 30 37 58 78 69 69 55 60 90 98 100 100 93 95 95
31 55 67 58 54 33 17 50 62 64 63 60 58 53 53 54 56 51 48 40 30 26 17 12 13 25 36 46 38 34 30 25 30 43 65 68 51 59 65 93 99 100 100 100 93
37 53 36 32 27 16 28 58 59 61 68 71 66 62 59 55 56 53 52 40 32 21 17 12 15 20 26 50 65 57 44 43 47 37 48 66 58 54 46 58 87 98 100 100 100
24 23 23 23 20 18 41 59 68 66 71 72 69 64 64 62 60 58 56 38 34 21 14 11 13 21 35 55 79 68 58 55 58 53 60 47 35 42 39 36 44 88 96 100 99
28 28 27 25 20 22 46 70 78 73 73 74 73 68 68 64 67 63 56 44 32 20 12 10 12 18 31 65 77 65 58 66 83 80 85 72 43 42 38 29 30 39 75 86 99
25 25 27 22 21 24 45 68 72 71 73 78 77 76 73 68 74 69 60 48 34 18 13 10 13 21 34 60 66 58 61 79 86 86 80 66 43 37 30 25 20 23 34 77 80
20 24 24 24 26 27 45 58 65 72 72 82 85 80 77 75 70 71 65 45 31 17 12 13 13 24 34 64 74 62 55 66 74 80 65 34 20 23 32 28 16 16 19 32 51
20 21 25 27 38 45 65 70 63 69 80 90 89 81 74 84 80 74 70 51 25 15 12 12 20 26 37 64 91 90 66 58 65 37 31 44 37 41 35 40 42 14 19 73 57
21 26 24 25 52 68 66 61 66 74 87 93 86 76 68 85 88 78 75 55 29 19 12 11 13 28 42 87 100 100 91 57 54 30 40 37 41 38 48 77 96 48 100 99 72
32 41 46 42 57 68 58 65 64 78 95 92 80 74 66 77 80 80 82 56 29 19 11 11 12 34 46 69 95 100 96 68 57 54 52 45 48 75 50 79 100 79 89 90 56
41 43 53 66 60 63 69 69 60 62 64 60 47 64 73 83 80 87 80 53 37 16 11 12 13 22 31 65 91 85 85 66 63 77 71 60 44 97 82 73 80 92 74 93 47
73 77 68 63 83 87 88 63 54 43 46 43 39 37 75 78 90 87 74 58 31 16 12 10 12 24 33 56 100 64 72 80 79 84 99 84 52 37 90 98 99 94 80 82 100

GFSSW_500_rhum_156.txt.gz
RH
25 23 21 22 21 20 19 17 15 12 12 15 25 27 25 26 24 23 22 19 17 17 16 15 16 14 13 12 11 10 10 9 9 9 8 8 8 8 8 9 12 16 16 26 24
20 19 19 19 17 15 13 12 11 12 14 19 26 30 30 28 26 25 22 19 18 16 16 16 16 15 13 12 11 11 10 9 9 8 7 6 6 6 7 8 11 16 20 30 32
12 12 12 12 12 12 14 13 12 14 15 16 22 31 33 30 26 22 21 18 19 18 18 17 17 14 12 11 11 10 10 10 8 7 6 6 6 5 6 6 15 20 44 49 51
11 13 15 15 14 15 15 15 14 15 16 18 26 33 34 28 24 22 21 21 20 20 19 19 16 12 12 11 11 10 10 8 8 7 6 5 5 5 7 8 29 30 43 83 65
17 16 17 20 23 23 20 17 17 18 19 22 32 36 33 28 26 27 25 23 22 21 22 18 16 14 13 13 12 11 10 9 8 7 5 4 5 12 16 24 35 31 42 60 89
32 36 35 35 32 28 26 24 25 24 28 32 36 36 33 30 29 27 25 24 24 24 20 19 18 16 14 14 13 11 10 9 7 6 4 4 13 100 70 100 97 67 69 83 94
44 40 38 37 35 33 32 39 45 49 47 42 39 36 34 31 28 26 25 27 27 24 21 19 18 17 16 14 12 12 10 8 6 6 9 15 48 100 96 94 98 100 100 100 100
45 40 35 37 36 36 51 60 54 49 45 43 40 37 31 28 28 28 30 28 25 23 20 20 21 20 16 14 14 12 10 7 8 16 43 60 62 84 96 94 95 100 100 100 100
40 42 35 37 41 54 66 62 55 51 49 44 39 32 29 28 34 33 31 27 25 23 23 22 22 18 16 17 14 13 8 5 12 41 66 89 72 93 73 85 80 91 94 96 98
41 41 40 48 64 74 72 64 58 48 34 32 30 30 34 36 37 35 31 28 26 25 23 24 21 20 20 18 14 10 6 7 13 35 69 73 64 89 98 96 86 80 96 98 98
38 35 42 62 85 84 73 62 53 39 27 26 26 28 38 41 40 37 33 31 30 30 30 25 24 24 21 16 12 9 7 7 27 49 64 77 77 100 100 100 100 100 100 100 99
37 31 39 64 76 81 69 58 52 39 26 20 24 37 42 44 41 39 38 35 34 35 32 28 26 26 21 15 10 9 8 10 29 56 72 77 100 99 100 98 88 87 90 88 86
32 33 34 64 71 72 64 58 50 31 18 27 40 46 49 47 43 42 39 36 37 38 33 30 28 26 20 13 10 11 9 13 25 62 76 71 98 94 87 91 88 94 100 93 93
23 24 26 45 60 64 56 53 40 18 43 48 52 60 56 52 51 47 44 42 42 41 35 31 30 27 18 13 11 11 15 20 23 37 56 62 66 86 100 97 98 100 100 100 100
22 25 28 30 52 61 48 46 18 26 48 52 58 59 60 62 56 52 46 46 45 40 36 33 33 27 16 13 11 13 24 28 28 26 30 52 52 63 84 97 98 100 100 100 100
23 24 38 36 38 27 29 22 17 34 55 63 63 60 57 57 58 56 52 46 39 41 40 40 34 26 17 13 12 13 25 35 37 36 26 32 35 38 57 89 90 95 100 100 100
29 29 27 27 26 24 22 19 19 34 47 54 59 59 59 62 64 61 55 46 44 43 44 43 37 23 17 13 13 15 22 35 49 49 40 41 46 35 35 47 79 89 90 98 100
28 23 22 26 27 25 21 20 21 28 45 50 56 54 64 65 64 63 55 50 51 52 52 46 35 29 19 14 13 13 31 56 61 72 57 51 53 86 45 34 39 55 88 93 100
35 22 20 21 25 26 23 21 23 26 39 50 53 56 64 69 67 59 52 50 49 54 55 48 38 25 18 15 16 20 28 58 61 50 40 59 53 54 56 50 42 29 41 81 91
31 27 20 21 24 27 25 30 37 40 49 54 57 62 67 67 64 53 45 44 49 58 60 50 40 29 20 16 18 25 38 58 57 50 63 93 58 52 44 33 30 34 24 33 71
28 24 20 20 25 32 33 34 43 49 50 53 60 64 70 65 56 40 54 47 54 64 62 53 45 35 21 14 17 23 40 72 74 63 60 55 85 36 28 29 23 16 18 21 40
21 20 19 23 35 42 50 57 53 55 58 64 61 55 56 43 27 33 53 58 59 67 61 54 49 30 17 14 20 31 41 89 100 88 56 51 26 28 29 34 23 15 9 14 24
27 24 20 36 44 53 65 65 66 71 80 72 56 48 44 35 33 31 50 54 78 76 62 57 44 28 18 17 22 33 38 68 98 94 60 67 31 34 34 37 51 37 17 11 13
32 25 23 42 54 67 65 70 74 76 78 61 48 48 43 36 37 41 49 62 80 68 70 67 54 26 16 15 26 51 54 88 100 100 95 57 49 38 42 38 52 72 94 72 26
28 30 38 52 60 67 68 78 81 79 74 50 48 46 41 40 40 51 55 65 82 70 79 68 48 30 18 11 14 32 48 96 100 100 98 68 73 75 54 37 84 73 100 100 100
25 28 43 51 60 71 70 72 76 75 70 57 51 45 43 44 47 42 35 65 65 80 84 62 40 28 19 12 13 12 23 71 100 100 100 100 78 83 73 46 35 93 100 100 100
52 51 55 58 66 77 76 62 57 57 54 51 49 46 44 46 43 40 58 76 82 88 79 67 41 23 19 12 13 15 26 63 95 96 100 100 97 76 72 56 38 50 100 100 100

GFSSW_500_rhum_159.txt.gz
RH
21 23 23 22 21 20 18 17 15 14 13 12 12 12 15 22 26 27 26 24 24 22 19 18 17 18 18 17 16 16 14 11 11 10 9 9 9 9 8 8 7 7 6 7 8
16 16 16 15 13 11 11 11 12 13 12 11 12 14 14 17 24 28 27 26 24 22 20 20 19 19 18 19 19 17 14 14 13 12 11 10 10 9 8 7 6 6 5 6 6
10 12 13 13 13 13 12 11 12 10 10 11 13 15 17 23 28 30 28 26 24 25 23 22 20 19 20 21 18 15 15 14 14 13 11 10 8 7 6 5 5 5 6 5 6
19 20 18 17 16 15 13 13 13 13 14 13 16 17 22 32 33 31 29 28 28 26 24 22 22 22 21 18 16 14 14 14 13 12 10 8 7 6 6 5 5 5 5 5 6
20 24 30 29 28 28 29 27 23 20 21 21 25 31 37 36 35 33 31 29 27 25 22 23 24 22 20 17 15 16 15 14 12 10 8 7 7 6 5 5 4 4 5 5 6
20 19 31 33 30 34 33 32 32 38 42 46 47 43 41 37 34 32 29 27 24 24 26 25 24 21 18 18 17 16 15 14 11 10 9 8 7 6 4 4 3 6 13 18 18
24 25 24 32 35 34 34 36 45 61 57 50 49 49 45 38 33 29 27 25 29 31 30 27 23 21 20 21 20 18 16 13 13 12 11 10 7 4 4 5 22 30 48 77 62
30 38 35 41 36 36 44 58 68 66 60 55 48 35 31 30 28 28 34 36 35 33 30 27 25 23 24 22 21 17 16 15 15 14 11 9 6 4 14 49 51 48 64 77 86
32 43 40 34 38 45 57 69 76 68 61 50 35 26 25 25 27 32 37 38 36 33 30 27 26 26 26 24 20 18 17 17 16 14 11 6 4 6 28 51 58 72 78 75 100
33 40 40 37 30 51 64 74 78 68 57 44 31 26 26 27 32 37 40 38 36 34 31 31 32 30 26 22 24 22 20 19 17 14 9 5 5 17 58 54 56 70 78 98 96
38 34 35 34 32 45 67 78 65 57 49 37 25 31 38 40 43 44 42 40 39 37 34 34 32 29 26 27 24 21 20 20 17 12 9 6 12 23 45 55 67 83 97 100 99
30 32 28 22 24 30 43 63 62 54 46 23 37 47 47 48 47 50 48 44 42 39 38 35 31 31 29 25 25 23 22 21 17 12 8 7 21 51 58 57 66 84 94 100 100
44 30 28 22 32 30 39 56 52 47 30 23 42 47 50 50 47 50 46 43 42 41 39 36 37 30 27 28 26 26 24 22 18 12 10 11 14 94 76 64 74 89 100 100 100
48 30 24 22 34 37 29 29 30 27 20 31 39 52 48 45 52 48 48 47 46 45 42 37 34 26 27 30 28 29 27 23 15 12 10 14 12 20 75 65 77 83 90 100 100
40 36 29 29 26 26 26 25 23 22 20 29 30 39 42 44 44 57 53 54 49 42 36 31 27 23 31 32 32 30 29 22 15 13 11 16 63 34 100 94 61 78 91 98 100
41 44 36 34 21 20 23 24 22 22 23 24 29 35 43 46 54 56 56 55 42 36 32 31 25 29 35 36 36 35 30 22 18 16 29 67 100 82 86 39 34 53 80 92 96
36 58 50 38 25 20 20 22 24 24 30 31 34 41 45 52 60 63 60 49 31 29 27 24 24 37 38 38 37 36 31 23 17 32 68 100 100 92 65 64 32 29 49 79 83
18 52 56 38 27 21 20 24 34 36 41 44 47 49 55 58 61 60 56 34 33 30 32 28 36 35 39 42 40 39 29 19 22 21 51 47 65 100 100 59 35 32 28 41 62
17 18 25 25 24 21 22 33 42 48 54 55 52 59 62 59 50 45 38 38 37 37 36 30 34 38 42 46 46 38 24 26 22 20 43 93 100 100 100 94 68 22 23 22 38
16 17 23 24 24 22 24 38 48 62 60 61 65 68 68 54 49 44 42 43 41 43 32 33 34 40 46 50 47 44 31 23 26 35 57 100 100 100 100 97 32 21 16 14 18
15 17 21 24 27 24 25 43 53 58 61 66 74 71 65 49 46 46 46 44 45 41 32 36 37 45 48 54 58 41 30 21 16 26 39 61 100 100 79 54 25 22 20 13 10
24 22 22 27 31 29 29 46 54 61 64 70 76 76 59 52 51 46 45 45 46 39 36 39 36 50 61 68 52 42 29 14 16 31 52 68 46 59 94 38 32 28 26 16 10
28 30 32 32 32 32 42 63 64 62 68 66 72 70 61 54 50 47 45 47 44 46 47 49 50 63 69 59 52 49 24 13 13 28 20 66 61 90 100 78 69 48 38 29 23
37 36 30 29 29 30 41 64 62 68 71 66 60 56 55 52 50 47 46 43 46 55 65 52 59 79 71 72 53 37 24 13 15 18 52 79 100 100 86 100 74 50 38 47 79
39 39 38 33 40 47 55 62 67 71 76 72 58 63 62 56 49 48 44 42 49 70 79 65 64 75 78 80 61 40 18 15 17 28 70 64 97 93 100 82 70 62 53 40 68
43 52 55 56 64 70 71 69 70 74 80 80 74 69 61 52 47 43 37 42 45 66 88 86 81 81 81 75 64 44 21 18 17 22 32 89 97 100 93 90 69 67 64 39 56
58 59 58 62 64 74 77 75 78 88 89 93 83 69 53 49 43 40 41 44 53 73 76 79 90 92 78 84 67 35 31 13 13 21 89 96 100 100 99 86 88 64 55 40 39